Home   Weather   Dreieich   Past weeks

Flag for Germany Past Weather in Dreieich, Hesse, Germany — Yesterday and Last 2 Weeks

Now
28 °F

Clear.


Feels Like: 19 °F
Forecast: 21 / 29 °F
Wind: 10 mph from Northeast

Location: Frankfurt-M-Flughafen Airport

Current Time: Jan 17, 2017 at 10:54:34 pm

Latest Report: Jan 17, 2017 at 10:20 pm


Visibility: 10 mi

Pressure: 30.63 "Hg

Humidity: 64%

Dew Point: 18 °F

Location of DreieichLocation

Past Weather in Dreieich — Graph

°F

Dreieich Temperature Yesterday

Maximum temperature yesterday: 34 °F (at 12:20 pm)
Minimum temperature yesterday: 23 °F (at 3:20 am)
Average temperature yesterday: 28 °F

High & Low Weather Summary for the Past Weeks

 TemperatureHumidityPressure
High43 °F (Jan 12, 12:50 pm)100% (Jan 5, 12:20 am)30.77 "Hg (Jan 5, 12:20 am)
Low12 °F (Jan 7, 1:50 am)48% (Jan 17, 11:50 am)29.15 "Hg (Jan 13, 12:50 am)
Average32 °F82%30.15 "Hg
* Reported Jan 2 9:20 pm — Jan 17 9:50 pm, Dreieich, Weather by CustomWeather, © 2017

Note: Actual official high and low records may vary slightly from our data, if they occured in-between our weather recording intervals... More about our weather records

Advertising

Dreieich Weather History for the Previous 24 Hours

Scroll right to see more
 ConditionsComfort  
Time TempWeatherWind HumidityBarometerVisibility
9:50 pm
Tue, Jan 17
28 °FClear.10 mph64%30.63 "Hg10 mi
9:20 pm28 °FClear.12 mph64%30.63 "Hg10 mi
8:50 pm28 °FClear.12 mph64%30.60 "Hg10 mi
8:20 pm30 °FPassing clouds.13 mph59%30.60 "HgN/A
7:50 pm30 °FPassing clouds.10 mph59%30.60 "HgN/A
7:20 pm28 °FPassing clouds.14 mph69%30.60 "HgN/A
6:50 pm30 °FPassing clouds.14 mph64%30.60 "HgN/A
6:20 pm30 °FPassing clouds.10 mph64%30.60 "HgN/A
5:50 pm30 °FPassing clouds.14 mph64%30.57 "HgN/A
5:20 pm30 °FPassing clouds.15 mph59%30.57 "HgN/A
4:50 pm32 °FPassing clouds.14 mph55%30.57 "HgN/A
4:20 pm32 °FPassing clouds.15 mph55%30.57 "HgN/A
3:50 pm34 °FPassing clouds.15 mph56%30.57 "HgN/A
3:20 pm34 °FScattered clouds.14 mph56%30.57 "HgN/A
2:50 pm32 °FScattered clouds.14 mph60%30.54 "HgN/A
2:20 pm32 °FScattered clouds.14 mph60%30.54 "HgN/A
1:50 pm32 °FPassing clouds.13 mph55%30.54 "HgN/A
1:20 pm34 °FPassing clouds.13 mph56%30.54 "HgN/A
12:50 pm34 °FPassing clouds.13 mph56%30.54 "HgN/A
12:20 pm32 °FPassing clouds.14 mph55%30.54 "HgN/A
11:50 am34 °FPassing clouds.15 mph48%30.57 "HgN/A
11:20 am32 °FPassing clouds.13 mph51%30.57 "HgN/A
10:50 am30 °FScattered clouds.14 mph55%30.57 "HgN/A
10:20 am30 °FScattered clouds.12 mph59%30.54 "HgN/A
9:50 am30 °FPartly sunny.15 mph59%30.54 "HgN/A
9:20 am30 °FPartly sunny.13 mph59%30.54 "HgN/A
8:50 am30 °FPartly sunny.10 mph59%30.54 "HgN/A
8:20 am30 °FPartly sunny.12 mph59%30.54 "HgN/A
7:50 am28 °FPassing clouds.9 mph64%30.54 "HgN/A
7:20 am28 °FOvercast.9 mph64%30.51 "HgN/A
6:50 am28 °FOvercast.9 mph69%30.51 "HgN/A
6:20 am28 °FOvercast.9 mph69%30.51 "HgN/A
5:50 am28 °FOvercast.8 mph69%30.51 "HgN/A
5:20 am28 °FOvercast.9 mph69%30.51 "HgN/A
4:50 am28 °FOvercast.8 mph69%30.48 "HgN/A
4:20 am27 °FOvercast.7 mph74%30.48 "HgN/A
3:50 am27 °FOvercast.8 mph74%30.48 "HgN/A
3:20 am27 °FPassing clouds.8 mph74%30.48 "HgN/A
2:50 am27 °FPassing clouds.8 mph74%30.48 "HgN/A
2:20 am27 °FPassing clouds.12 mph74%30.48 "HgN/A
1:50 am27 °FPassing clouds.9 mph74%30.48 "HgN/A
1:20 am27 °FPassing clouds.13 mph80%30.45 "HgN/A
12:50 am25 °FPassing clouds.12 mph80%30.45 "HgN/A
12:20 am25 °FClear.10 mph80%30.45 "Hg10 mi
11:50 pm
Mon, Jan 16
25 °FClear.10 mph80%30.42 "Hg10 mi
11:20 pm25 °FClear.9 mph80%30.42 "Hg10 mi
10:50 pm27 °FClear.9 mph80%30.42 "Hg10 mi
10:20 pm27 °FClear.12 mph80%30.42 "Hg10 mi
Weather by CustomWeather, © 2017

See weather overviewHow to use our weather pages